FW5619 Weather Reports


time (UTC)temp
C
wind
direction
speed
KPH
gust
KPH
rain 1hr
cm
rain 24hr
cm
rain mn
cm
humidity
%
barometer
mb
20260504202540 13 196 33.8 49.9 0.00 0.00 0.00 79 1011.9
20260504202042 13 204 30.6 45.1 0.00 0.00 0.00 79 1012.0
20260504201539 13 193 30.6 49.9 0.00 0.00 0.00 79 1012.0
20260504201040 13 196 35.4 53.1 0.00 0.00 0.00 79 1012.1
20260504200541 13 189 32.2 53.1 0.00 0.00 0.00 79 1012.1
20260504200044 13 186 35.4 53.1 0.00 0.00 0.00 78 1012.1
20260504195539 13 174 30.6 51.5 0.00 0.00 0.00 78 1012.2
20260504195037 13 190 25.7 46.7 0.00 0.00 0.00 78 1012.1
20260504194541 13 182 33.8 56.3 0.00 0.00 0.00 79 1012.2
20260504194040 13 205 32.2 56.3 0.00 0.00 0.00 79 1012.3
20260504193536 13 185 32.2 49.9 0.00 0.00 0.00 78 1012.3
20260504193037 13 148 29.0 45.1 0.00 0.00 0.00 78 1012.4
20260504192535 13 215 29.0 48.3 0.00 0.00 0.00 77 1012.5
20260504192035 13 192 35.4 49.9 0.00 0.00 0.00 78 1012.5
20260504191539 13 195 29.0 49.9 0.00 0.00 0.00 78 1012.6
20260504191036 13 180 29.0 53.1 0.00 0.00 0.00 78 1012.6
20260504190534 13 199 38.6 53.1 0.00 0.00 0.00 77 1012.6
20260504190037 13 196 35.4 53.1 0.00 0.00 0.00 77 1013.0
20260504185533 13 174 29.0 46.7 0.00 0.00 0.00 78 1012.8
20260504185032 13 211 30.6 46.7 0.00 0.00 0.00 77 1012.8
20260504184535 13 202 32.2 46.7 0.00 0.00 0.00 77 1012.9
20260504184031 13 178 30.6 49.9 0.00 0.00 0.00 78 1013.0
20260504183531 13 182 30.6 45.1 0.00 0.00 0.00 78 1013.0
20260504183033 13 179 27.4 46.7 0.00 0.00 0.00 78 1012.9
20260504182529 13 207 29.0 46.7 0.00 0.00 0.00 78 1013.0
20260504182029 13 201 29.0 46.7 0.00 0.00 0.00 77 1013.2
20260504181529 13 207 25.7 38.6 0.00 0.00 0.00 78 1013.1
20260504181031 13 203 24.1 37.0 0.00 0.00 0.00 78 1013.3
20260504180531 13 238 24.1 40.2 0.00 0.00 0.00 78 1013.3
20260504180029 13 219 25.7 41.8 0.00 0.00 0.00 78 1013.3
20260504175528 13 205 32.2 48.3 0.00 0.00 0.00 79 1013.3
20260504175031 13 201 33.8 41.8 0.00 0.00 0.00 78 1013.3
20260504174527 13 200 29.0 40.2 0.00 0.00 0.00 79 1013.3
20260504174026 13 184 29.0 40.2 0.00 0.00 0.00 79 1013.4
20260504173525 13 202 27.4 46.7 0.00 0.00 0.00 79 1013.5
20260504173026 13 198 32.2 46.7 0.00 0.00 0.00 79 1013.5
20260504172624 13 202 30.6 43.5 0.00 0.00 0.00 80 1013.5
20260504172024 13 199 29.0 46.7 0.00 0.00 0.00 80 1013.6
20260504171524 13 192 29.0 46.7 0.00 0.00 0.00 79 1013.6
20260504171023 13 199 24.1 46.7 0.00 0.00 0.00 79 1013.7
20260504170522 13 190 24.1 35.4 0.00 0.00 0.00 78 1013.8
20260504151015 15 230 12.9 22.5 0.00 0.00 0.00 67 1015.3
20260504150514 15 286 9.7 22.5 0.00 0.00 0.00 66 1015.2
20260504141010 14 260 12.9 27.4 0.00 0.00 0.00 64 1015.3
20260504140510 14 219 12.9 30.6 0.00 0.00 0.00 62 1015.3
20260504130502 13 229 14.5 29.0 0.00 0.00 0.00 65 1015.9
20260504110544 11 249 14.5 30.6 0.00 0.00 0.00 67 1016.2
20260504100537 10 231 6.4 14.5 0.00 0.00 0.00 74 1016.3
20260504081537 10 360 8.0 17.7 0.00 0.00 0.00 62 1015.7
20260504081021 10 360 8.0 17.7 0.00 0.00 0.00 61 1015.6
20260504080521 10 360 8.0 16.1 0.00 0.00 0.00 61 1015.5
20260504050557 11 246 12.9 22.5 0.00 0.00 0.00 64 1014.7
20260504045556 11 246 11.3 19.3 0.00 0.00 0.00 63 1014.7
20260504045054 11 244 11.3 20.9 0.00 0.00 0.00 63 1014.7
20260504044554 11 248 12.9 20.9 0.00 0.00 0.00 62 1014.5
20260504044054 11 244 11.3 19.3 0.00 0.00 0.00 62 1014.6
20260504043553 11 244 11.3 24.1 0.00 0.00 0.00 62 1014.5
20260504043057 11 243 12.9 24.1 0.00 0.00 0.00 62 1014.6
20260504042551 11 243 11.3 17.7 0.00 0.00 0.00 62 1014.6
20260504042052 11 243 9.7 22.5 0.00 0.00 0.00 61 1014.5
20260504041550 11 242 14.5 22.5 0.00 0.00 0.00 60 1014.5
20260504041053 11 246 11.3 20.9 0.00 0.00 0.00 60 1014.4
20260504040547 11 244 11.3 20.9 0.00 0.00 0.00 59 1014.4
20260504040047 11 246 11.3 20.9 0.00 0.00 0.00 59 1014.3
20260504035547 11 247 11.3 20.9 0.00 0.00 0.00 59 1014.1
20260504035047 11 246 12.9 19.3 0.00 0.00 0.00 60 1014.3
20260504034548 11 246 9.7 17.7 0.00 0.00 0.00 61 1014.3
20260504034045 11 360 6.4 17.7 0.00 0.00 0.00 65 1014.3
20260504033548 11 360 9.7 17.7 0.00 0.00 0.00 60 1014.3
20260504033046 11 360 9.7 19.3 0.00 0.00 0.00 60 1014.3
20260504032545 11 360 14.5 19.3 0.00 0.00 0.00 60 1014.4
20260504032048 11 360 9.7 17.7 0.00 0.00 0.00 60 1014.3
20260504031545 11 360 9.7 14.5 0.00 0.00 0.00 60 1014.4
20260504031044 11 259 9.7 17.7 0.00 0.00 0.00 59 1014.4
20260504030543 11 259 9.7 17.7 0.00 0.00 0.00 58 1014.4
20260504030044 12 257 8.0 20.9 0.00 0.00 0.00 57 1014.3
20260504025544 12 258 8.0 17.7 0.00 0.00 0.00 58 1014.2
20260504025044 12 258 9.7 16.1 0.00 0.00 0.00 58 1014.2
20260504024545 12 258 9.7 19.3 0.00 0.00 0.00 58 1014.3
20260504024044 12 258 11.3 19.3 0.00 0.00 0.00 58 1014.3
20260504023543 12 259 11.3 16.1 0.00 0.00 0.00 57 1014.2
20260504023041 12 259 11.3 16.1 0.00 0.00 0.00 56 1014.3
20260504022542 12 260 11.3 16.1 0.00 0.00 0.00 55 1014.2
20260504022041 12 261 9.7 16.1 0.00 0.00 0.00 56 1014.2
20260504021541 12 261 9.7 16.1 0.00 0.00 0.00 57 1014.2
20260504021042 12 262 9.7 16.1 0.00 0.00 0.00 57 1014.2
20260504020540 12 263 9.7 17.7 0.00 0.00 0.00 57 1014.1
20260504020115 12 267 9.7 17.7 0.00 0.00 0.00 58 1014.2
20260504015540 12 274 9.7 14.5 0.00 0.00 0.00 63 1014.2
20260504015039 12 281 8.0 11.3 0.00 0.00 0.00 60 1014.1
20260504014553 12 283 3.2 12.9 0.00 0.00 0.00 53 1014.1
20260504014037 12 283 4.8 12.9 0.00 0.00 0.00 52 1014.1
20260504013536 12 284 8.0 12.9 0.00 0.00 0.00 52 1014.0
20260504013045 12 286 3.2 8.0 0.00 0.00 0.00 52 1014.0
20260504012538 12 286 3.2 9.7 0.00 0.00 0.00 49 1014.0
20260504012035 12 286 4.8 8.0 0.00 0.00 0.00 48 1013.9
20260504011535 12 286 3.2 8.0 0.00 0.00 0.00 47 1013.8
20260504011035 12 286 4.8 11.3 0.00 0.00 0.00 46 1013.7
20260504010535 12 286 4.8 11.3 0.00 0.00 0.00 46 1013.6
20260504010037 12 294 6.4 11.3 0.00 0.00 0.00 47 1013.6
20260504005533 12 298 4.8 8.0 0.00 0.00 0.00 47 1013.5
20260504005032 13 298 3.2 6.4 0.00 0.00 0.00 39 1013.4
20260504004539 13 298 1.6 6.4 0.00 0.00 0.00 36 1013.4
20260504004032 13 298 3.2 6.4 0.00 0.00 0.00 36 1013.3
20260504003532 13 298 0.0 6.4 0.00 0.00 0.00 36 1013.3
20260504003031 13 360 1.6 6.4 0.00 0.00 0.00 36 1013.2
20260504002532 13 298 1.6 11.3 0.00 0.00 0.00 35 1013.1
20260504002032 13 298 3.2 11.3 0.00 0.00 0.00 34 1013.1
20260504001541 13 298 3.2 9.7 0.00 0.00 0.00 34 1012.9
20260504001033 14 300 4.8 9.7 0.00 0.00 0.00 34 1012.9
20260504000534 14 302 3.2 14.5 0.00 0.00 0.00 35 1012.9
20260504000032 14 301 4.8 14.5 0.00 0.00 0.00 34 1012.7
20260503235531 14 302 8.0 19.3 0.00 0.00 0.00 32 1012.7
20260503235031 14 302 9.7 19.3 0.00 0.00 0.00 31 1012.6
20260503234530 15 269 9.7 24.1 0.00 0.00 0.00 32 1012.5
20260503234031 15 305 11.3 27.4 0.00 0.00 0.00 32 1012.5
20260503233530 15 311 16.1 27.4 0.00 0.00 0.00 31 1012.3
20260503233035 15 321 12.9 19.3 0.00 0.00 0.00 31 1012.3
20260503232530 15 295 9.7 17.7 0.00 0.00 0.00 31 1012.3
20260503232030 15 281 11.3 20.9 0.00 0.00 0.00 32 1012.2
20260503231530 15 296 9.7 27.4 0.00 0.00 0.00 30 1012.2
20260503231029 15 345 12.9 27.4 0.00 0.00 0.00 29 1012.2
20260503230530 15 303 14.5 25.7 0.00 0.00 0.00 31 1012.1
20260503230029 15 325 12.9 25.7 0.00 0.00 0.00 31 1012.1
20260503225528 15 296 14.5 29.0 0.00 0.00 0.00 30 1012.2
20260503225030 15 317 14.5 30.6 0.00 0.00 0.00 30 1012.2
20260503224527 15 321 16.1 32.2 0.00 0.00 0.00 30 1012.2
20260503224029 15 299 16.1 32.2 0.00 0.00 0.00 31 1012.1
20260503223528 15 249 14.5 35.4 0.00 0.00 0.00 30 1012.1
20260503223027 15 281 20.9 35.4 0.00 0.00 0.00 31 1012.1
20260503222526 15 306 16.1 37.0 0.00 0.00 0.00 30 1012.1
20260503222026 15 255 14.5 37.0 0.00 0.00 0.00 31 1012.1
20260503221526 15 312 19.3 37.0 0.00 0.00 0.00 30 1012.1
20260503221025 15 286 20.9 33.8 0.00 0.00 0.00 30 1012.1
20260503220526 15 290 16.1 33.8 0.00 0.00 0.00 30 1012.0
20260503220026 15 301 19.3 30.6 0.00 0.00 0.00 31 1012.0
20260503215525 15 302 17.7 30.6 0.00 0.00 0.00 31 1012.0
20260503215023 15 288 20.9 37.0 0.00 0.00 0.00 30 1012.0
20260503214523 15 288 22.5 37.0 0.00 0.00 0.00 31 1012.1
20260503214026 15 308 20.9 48.3 0.00 0.00 0.00 30 1012.1
20260503213523 15 311 19.3 48.3 0.00 0.00 0.00 31 1012.0
20260503213022 15 295 19.3 37.0 0.00 0.00 0.00 32 1011.9
20260503212522 15 298 17.7 49.9 0.00 0.00 0.00 31 1011.9
20260503212022 15 306 19.3 49.9 0.00 0.00 0.00 31 1011.9
20260503211521 15 305 22.5 43.5 0.00 0.00 0.00 32 1011.7
20260503211021 14 306 25.7 43.5 0.00 0.00 0.00 31 1011.8
20260503210525 15 303 25.7 40.2 0.00 0.00 0.00 31 1011.7
20260503210020 14 319 19.3 40.2 0.00 0.00 0.00 32 1011.5
20260503205520 15 313 14.5 46.7 0.00 0.00 0.00 32 1011.7
20260503205020 15 297 24.1 46.7 0.00 0.00 0.00 31 1011.8
20260503204519 14 302 16.1 35.4 0.00 0.00 0.00 32 1011.7
20260503204018 14 286 20.9 38.6 0.00 0.00 0.00 33 1011.8
20260503203517 14 304 19.3 38.6 0.00 0.00 0.00 33 1011.8
20260503203040 14 298 14.5 33.8 0.00 0.00 0.00 34 1011.7